Tracking 19709 objects as of 20-Jun-2019
HD Live streaming from Space Station
objects crossing your sky now

COSMOS 1800

Track COSMOS 1800 now!
10-day predictions
COSMOS 1800 is classified as:


NORAD ID: 17144
Int'l Code: 1986-092G
Perigee: 1,405.4 km
Apogee: 1,479.6 km
Inclination: 74.0 °
Period: 114.6 minutes
Semi major axis: 7813 km
RCS: 0.7179 m2 (medium)
Launch date: November 21, 1986
Source: Commonwealth of Independent States (former USSR) (CIS)
Launch site: PLESETSK MISSILE AND SPACE COMPLEX (PKMTR)
aabbcc
Your satellite tracking list
Your tracking list is empty




NASA's NSSDC Master Catalog

Two Line Element Set (TLE):
1 17144U 86092G   19170.72021637 -.00000024 +00000-0 -43677-4 0  9997
2 17144 074.0135 265.2057 0047507 013.5803 084.4612 12.56999018494809
Source of the keplerian elements: AFSPC